TIANGONG-2

Last updated on July 20, 2019, 12:02 a.m. UTC

1 41765U 16057A   19200.28161137  .00235737  81559-5  15236-3 0  9993
2 41765  42.7846 135.0246 0143359 272.5645 218.4707 15.97835923162069

Satellite is not in orbit.